Location: La Pernelle
(49.6188°N, 1.2999°W)
Time: 02:53:41
(UTC+00:00)

NOSS 3-2 (A) - Pass Details

Date: 22 October 2021
Orbit: 771 x 1437 km, 63.4° (Epoch: 21 November)

Event Time Altitude Azimuth Distance (km) Brightness Sun altitude
Rises 21:25:08 0° 316° (NW) 3,890 7.5 -41.5°
Reaches altitude 10° 21:27:38 10° 317° (NW) 3,021 6.7 -41.9°
Enters shadow 21:31:52 40° 320° (NW) 1,706 4.9 -42.4°
